Location: Diebersbach
(48.5163°N, 8.0558°E)
Time: 10:05:04
(UTC+00:00)

NOSS 3-2 (A) - Pass Details

Date: 20 June 2021
Orbit: 774 x 1433 km, 63.4° (Epoch: 17 July)

Event Time Altitude Azimuth Distance (km) Brightness Sun altitude
Rises 02:21:31 0° 318° (NW) 3,906 6.8 -8.4°
Reaches altitude 10° 02:24:01 10° 319° (NW) 3,035 6.2 -8.1°
Maximum altitude 02:31:28 85° 49° (NE) 1,282 4.2 -7.3°
Drops below altitude 10° 02:39:59 10° 139° (SE) 3,452 6.3 -6.4°
Sets 02:43:01 0° 140° (SE) 4,468 6.9 -6.1°
